Location: Home
(42.5358°N, 72.7383°W)
Time: 11:58:36
(UTC-05:00)

A-11 Canister half - Pass Details

Date: 06 December 2021
Orbit: 1516 x 1684 km, 47.2° (Epoch: 26 January)

Event Time Altitude Azimuth Distance (km) Brightness Sun altitude
Rises 09:28:56 0° 280° (W) 4,816 11.2 18.0°
Reaches altitude 10° 09:32:03 10° 283° (WNW) 3,852 10.8 18.3°
Maximum altitude 09:41:56 69° 6° (N) 1,759 9.4 19.2°
Drops below altitude 10° 09:52:04 10° 90° (E) 3,944 11.6 20.1°
Sets 09:55:18 0° 93° (E) 4,936 12.1 20.4°
